Location: Mount Tamalpais State Park
(37.9108°N, 122.6128°W)
Time: 20:18:04
(UTC-07:00)

Cosmos 1814 Rocket - Visible Passes

Search period start: 24 May 2016 00:00
Search period end: 03 June 2016 00:00
Orbit: 745 x 787 km, 74.1° (Epoch: 24 May)

Date Brightness Start Highest point End Pass type
(mag) Time Alt. Az. Time Alt. Az. Time Alt. Az.
24 May 5.7 00:43:30 10° N 00:47:47 24° ENE 00:47:57 24° ENE visible
24 May 5.3 02:25:01 10° NW 02:28:10 30° WNW 02:28:10 30° WNW visible
25 May 6.2 00:07:02 10° NNE 00:09:57 15° ENE 00:10:51 14° ENE visible
25 May 4.7 01:47:13 10° NNW 01:51:04 47° NW 01:51:04 47° NW visible
26 May 4.6 01:09:42 10° NNW 01:14:00 55° NNE 01:14:00 55° NNE visible
26 May 6.4 02:54:04 10° WNW 02:54:12 10° WNW 02:54:12 10° WNW visible
27 May 5.0 00:32:25 10° N 00:36:58 38° NE 00:36:58 38° NE visible
27 May 5.9 02:15:00 10° NW 02:17:11 19° WNW 02:17:11 19° WNW visible
27 May 5.7 23:55:27 10° N 23:59:38 23° ENE 23:59:57 23° ENE visible
28 May 5.3 01:36:51 10° NNW 01:40:10 32° WNW 01:40:10 32° WNW visible
28 May 6.2 23:19:07 10° NNE 23:21:47 14° ENE 23:22:59 13° ENE visible
29 May 4.6 00:59:05 10° NNW 01:03:12 54° NW 01:03:12 54° NW visible
30 May 4.4 00:21:36 10° NNW 00:26:14 58° NE 00:26:14 58° NE visible
30 May 6.4 02:05:37 10° WNW 02:06:28 12° WNW 02:06:28 12° WNW visible
30 May 5.0 23:44:21 10° N 23:49:14 36° ENE 23:49:19 36° ENE visible
31 May 5.8 01:26:46 10° NW 01:29:32 22° WNW 01:29:32 22° WNW visible
31 May 5.6 23:07:26 10° N 23:11:29 22° ENE 23:12:25 21° ENE visible
01 Jun 5.0 00:48:40 10° NNW 00:52:38 39° WNW 00:52:38 39° WNW visible
01 Jun 6.2 22:31:13 10° NNE 22:33:37 13° NE 22:35:32 11° ENE visible
02 Jun 4.1 00:10:57 10° NNW 00:15:46 71° NW 00:15:46 71° NW visible
02 Jun 4.2 23:33:29 10° N 23:38:45 59° ENE 23:38:55 59° ENE visible
